This demonstration page uses our WeatherBlox Daily Observations layout. Learn more.

Left ArrowRight Arrow

44.31136, -96.79839

Hourly Observations for August 22, 2017

Temp ( °F °C ) Dew Point ( °F °C ) Humidity (%) Winds ( mph kmh ) Pressure ( in mb ) Visibility ( mi km ) Precip ( " mm )
12:56 am 00:56 Clear 60 15.6 56 13.3 86 86 NW 8 13 30.07 1018 N/A 0.00 0.00
1:56 am 01:56 Clear 58 14.4 54 12.2 87 87 NNW 10 17 30.08 1019 N/A 0.00 0.00
2:56 am 02:56 Clear 56 13.3 52 11.1 87 87 NNW 7 11 30.10 1019 N/A 0.00 0.00
3:56 am 03:56 Clear 53 11.7 50 10 89 89 WNW 3 6 30.12 1020 N/A 0.00 0.00
4:56 am 04:56 Clear 53 11.7 50 10 89 89 Calm 30.13 1020 N/A 0.00 0.00
5:56 am 05:56 Clear 51 10.6 49 9.4 92 92 Calm 30.14 1021 N/A 0.00 0.00
6:56 am 06:56 Sunny 50 10 49 9.4 96 96 Calm 30.16 1022 N/A 0.00 0.00
7:56 am 07:56 Sunny 53 11.7 50 10 89 89 Calm 30.18 1022 N/A 0.00 0.00
8:56 am 08:56 Sunny 58 14.4 53 11.7 84 84 NW 3 6 30.20 1023 N/A 0.00 0.00
9:56 am 09:56 Sunny 64 17.8 52 11.1 65 65 NW 12 19 30.21 1023 N/A 0.00 0.00
10:56 am 10:56 Sunny 67 19.4 49 9.4 53 53 NNW 13 20 30.21 1023 N/A 0.00 0.00
11:56 am 11:56 Sunny 68 20 48 8.9 49 49 NW 12 19 30.22 1023 N/A 0.00 0.00
12:56 pm 12:56 Sunny 69 20.6 47 8.3 45 45 NW 14 22 30.21 1023 N/A 0.00 0.00
1:56 pm 13:56 Sunny 70 21.1 47 8.3 44 44 NW 14 22 30.20 1023 N/A 0.00 0.00
2:56 pm 14:56 Sunny 70 21.1 45 7.2 41 41 NW 15 24 30.21 1023 N/A 0.00 0.00
3:56 pm 15:56 Sunny 72 22.2 48 8.9 43 43 NNW 14 22 30.19 1022 N/A 0.00 0.00
4:56 pm 16:56 Sunny 72 22.2 47 8.3 41 41 NW 15 24 30.18 1022 N/A 0.00 0.00
5:56 pm 17:56 Sunny 71 21.7 47 8.3 42 42 NNW 12 19 30.18 1022 N/A 0.00 0.00
6:56 pm 18:56 Sunny 70 21.1 50 10 49 49 NNW 7 11 30.17 1022 N/A 0.00 0.00
7:56 pm 19:56 Sunny 67 19.4 51 10.6 57 57 NW 5 7 30.16 1021 N/A 0.00 0.00
8:56 pm 20:56 Clear 63 17.2 53 11.7 70 70 Calm 30.17 1022 N/A 0.00 0.00
9:56 pm 21:56 Clear 61 16.1 51 10.6 70 70 Calm 30.17 1022 N/A 0.00 0.00
10:56 pm 22:56 Clear 57 13.9 51 10.6 81 81 Calm 30.19 1022 N/A 0.00 0.00
11:56 pm 23:56 Clear 56 13.3 51 10.6 84 84 Calm 30.19 1022 N/A 0.00 0.00

Powered by AerisWeather